Regional Weather Roundup
Issued by NWS

Home | Current Version | Previous Version | Graphics & Text | Print | Product List | Glossary Off
Versions: 1 2 3 4 5 6 7 8 9 10 11 12 13 14 15 16 17 18 19 20 21 22 23 24 25 26 27 28 29 30 31 32 33 34 35 36 37 38 39 40 41 42 43 44 45 46 47 48 49 50

000
ASUS43 KLOT 300401
RWRIL

ILLINOIS REGIONAL WEATHER ROUNDUP
NATIONAL WEATHER SERVICE CHICAGO/ROMEOVILLE IL
1100 PM CDT WED JUL 29 2015

NOTE: "FAIR" INDICATES FEW OR NO CLOUDS BELOW 12,000 FEET WITH NO
SIGNIFICANT WEATHER AND/OR OBSTRUCTIONS TO VISIBILITY.

* THESE STATIONS ARE NOT UNDER NWS QUALITY CONTROL. THEY ALSO MAY NOT
  REPORT WEATHER SUCH AS PRECIPITATION OR FOG.

ILZ001-002-007-009-015-016-024-300500-
NORTHWEST ILLINOIS

CITY           SKY/WX    TMP DP  RH WIND       PRES   REMARKS
MOLINE         CLEAR     67  61  81 CALM      30.08R
STERLING*      CLEAR     66  61  82 W7        30.05S
$$

ILZ003-004-008-010-011-017-018-300500-
NORTH CENTRAL ILLINOIS

CITY           SKY/WX    TMP DP  RH WIND       PRES   REMARKS
ROCKFORD       CLEAR     68  57  68 W6        30.05S
$$

ILZ005-006-012>014-019>023-300500-
NORTHEAST ILLINOIS

CITY           SKY/WX    TMP DP  RH WIND       PRES   REMARKS
CHICAGO-OHARE  CLEAR     73  57  57 W8        30.01S
CHICAGO-MIDWAY CLEAR     77  56  48 W7        30.01F
AURORA         CLEAR     63  58  83 W6        30.04S
LANSING*       CLEAR     71  54  55 W5        30.02F
WAUKEGAN       CLEAR     73  54  51 W8        29.99S
DUPAGE AIRPORT CLEAR     69  57  65 W3        30.03S
WHEELING       CLEAR     74  55  51 W9        30.01F
NORTHERLY ISL    N/A     77  55  46 W5          N/A
$$

LMZ740>746-300500-
SOUTHERN LAKE MICHIGAN

STATION/POSITION SKY/WX   TEMP    WIND        PRES    VSBY  WAVE
                          AIR SEA DIR/SP/G                  HT/PER
                          (F)     (DEG/KT/KT) (MB)    (MI)  (FT/S)
HARRISON CRIB              78     270/ 12/ 15   N/A
BURNHAM HARBOR             78     260/  6/ 10   N/A
CALUMET HARBOR             77                   N/A
BURNS HARBOR               76     260/ 12/ 13 1016.9R
MICHIGAN CITY              76     250/ 14/ 15   N/A
MICHIGAN CITY 6N           77 74  290/ 10/ 14   N/A           2/ 3
ST. JOSEPH                 77 75  300/ 14/ 16   N/A           3/ 3
$$

ILZ025>027-034>036-040-047-049-050-058-095>099-300500-
WEST-CENTRAL ILLINOIS

CITY           SKY/WX    TMP DP  RH WIND       PRES   REMARKS
QUINCY         CLEAR     71  61  70 W5        30.13R
MACOMB*        CLEAR     66  64  92 W5        30.13R
$$

ILZ028>032-037-038-041>044-048-051>054-059>061-300500-
CENTRAL ILLINOIS

CITY           SKY/WX    TMP DP  RH WIND       PRES   REMARKS
DECATUR        CLEAR     74  58  57 NW9       30.09S
PEORIA         CLEAR     72  61  68 W5        30.09S
SPRINGFIELD    CLEAR     67  61  81 W7        30.11R
TAYLORVILLE    NOT AVBL
$$

ILZ033-039-045-046-055>057-062-063-300500-
EAST-CENTRAL ILLINOIS

CITY           SKY/WX    TMP DP  RH WIND       PRES   REMARKS
CHAMPAIGN      PTCLDY    67  61  81 NW6       30.08S
MATTOON        PTCLDY    67  58  72 NW7       30.08R
$$

ILZ079-100>102-300500-
SOUTHWEST ILLINOIS

CITY           SKY/WX    TMP DP  RH WIND       PRES   REMARKS
CAHOKIA*       CLEAR     75  60  59 N8        30.11R
SPARTA*        CLEAR     75  65  73 CALM      30.11R
$$

ILZ064>066-069>071-074>076-080>082-084>086-088>090-092>094-300500-
SOUTH-CENTRAL ILLINOIS

CITY           SKY/WX    TMP DP  RH WIND       PRES   REMARKS
CARBONDALE     CLEAR     76  69  79 NW7       30.08R
MT. VERNON     PTCLDY    75  63  64 CALM      30.09S
SALEM*         PTCLDY    72  66  82 NW3       30.10R
$$

ILZ067-068-072-073-078-083-087-091-300500-
SOUTHEAST ILLINOIS

CITY           SKY/WX    TMP DP  RH WIND       PRES   REMARKS
LAWRENCEVILLE  MOCLDY    72  67  84 NW5       30.05F
FLORA*         MOCLDY    73  65  75 NW5       30.09R
HARRISBURG*    MOCLDY    80  73  80 N6        30.07S HX  84
ROBINSON*      MOCLDY    69  66  91 W3        30.07S
CARMI*         MOCLDY    76  67  73 CALM      30.05S
$$

ABBREVIATIONS USED IN REMARKS
   TC - TEMPERATURE IN CELSIUS
  WCI - WIND CHILL INDEX
   HX - HEAT INDEX
  VSB - VISIBILITY
$$



USA.gov is the U.S. government's official web portal to all federal, state and local government web resources and services.